TimeEDT,TemperatureF,Dew PointF,Humidity,Sea Level PressureIn,VisibilityMPH,Wind Direction,Wind SpeedMPH,Gust SpeedMPH,PrecipitationIn,Events,Conditions,WindDirDegrees,DateUTC
12:56 AM,73.0,66.0,79,29.91,10.0,SSE,10.4,-,N/A,,Scattered Clouds,150,2013-10-07 04:56:00
1:56 AM,73.0,66.0,79,29.90,10.0,South,9.2,19.6,N/A,,Overcast,170,2013-10-07 05:56:00
2:56 AM,72.0,66.0,81,29.87,10.0,SE,11.5,-,N/A,,Scattered Clouds,140,2013-10-07 06:56:00
3:07 AM,71.6,66.2,83,29.87,10.0,SE,9.2,-,N/A,,Mostly Cloudy,140,2013-10-07 07:07:00
3:18 AM,71.6,66.2,83,29.87,10.0,SSE,9.2,19.6,N/A,,Scattered Clouds,160,2013-10-07 07:18:00
3:56 AM,72.0,66.0,81,29.85,10.0,SSE,9.2,-,N/A,,Partly Cloudy,160,2013-10-07 07:56:00
4:52 AM,71.6,66.2,83,29.85,10.0,South,6.9,-,N/A,,Mostly Cloudy,190,2013-10-07 08:52:00
4:56 AM,72.0,66.0,81,29.85,10.0,South,10.4,-,N/A,,Mostly Cloudy,170,2013-10-07 08:56:00
5:56 AM,73.0,66.0,79,29.82,10.0,South,12.7,-,N/A,,Overcast,170,2013-10-07 09:56:00
6:56 AM,72.0,66.0,81,29.80,10.0,SSE,15.0,26.5,N/A,,Mostly Cloudy,160,2013-10-07 10:56:00
7:08 AM,71.6,66.2,83,29.80,10.0,SSE,15.0,21.9,N/A,,Scattered Clouds,160,2013-10-07 11:08:00
7:56 AM,73.0,66.0,79,29.80,10.0,SSE,6.9,-,N/A,,Mostly Cloudy,150,2013-10-07 11:56:00
8:03 AM,73.4,66.2,78,29.80,10.0,South,6.9,-,N/A,,Mostly Cloudy,170,2013-10-07 12:03:00
8:33 AM,73.4,66.2,78,29.79,10.0,SSE,12.7,18.4,N/A,,Overcast,150,2013-10-07 12:33:00
8:56 AM,73.0,66.0,79,29.78,10.0,SSE,10.4,-,N/A,,Overcast,150,2013-10-07 12:56:00
9:25 AM,73.4,66.2,78,29.77,10.0,SSE,11.5,25.3,N/A,,Overcast,160,2013-10-07 13:25:00
9:56 AM,75.0,66.0,73,29.73,10.0,SSE,16.1,26.5,N/A,,Overcast,150,2013-10-07 13:56:00
10:26 AM,71.6,68.0,88,29.74,1.8,South,13.8,21.9,0.09,Rain,Heavy Rain,180,2013-10-07 14:26:00
10:34 AM,71.6,68.0,88,29.74,1.0,WSW,13.8,21.9,0.22,Rain,Heavy Rain,240,2013-10-07 14:34:00
10:43 AM,71.6,68.0,88,29.74,2.0,SSW,12.7,21.9,0.26,Rain,Rain,210,2013-10-07 14:43:00
10:47 AM,71.6,68.0,88,29.74,4.0,SSW,12.7,19.6,0.27,Rain,Rain,200,2013-10-07 14:47:00
10:56 AM,72.0,66.9,84,29.74,8.0,SSW,12.7,20.7,0.27,Rain,Light Rain,200,2013-10-07 14:56:00
11:31 AM,69.8,66.2,88,29.77,1.8,SW,10.4,-,0.09,Rain,Heavy Rain,220,2013-10-07 15:31:00
11:56 AM,66.9,64.9,93,29.78,1.5,SW,6.9,-,0.24,Rain,Heavy Rain,220,2013-10-07 15:56:00
12:06 PM,66.2,64.4,94,29.77,3.0,SW,5.8,-,0.03,Rain,Rain,220,2013-10-07 16:06:00
12:56 PM,64.0,61.0,90,29.82,4.0,WNW,11.5,-,0.12,Rain,Heavy Rain,300,2013-10-07 16:56:00
1:38 PM,60.8,57.2,88,29.82,5.0,WNW,8.1,-,0.17,Rain,Rain,300,2013-10-07 17:38:00
1:56 PM,60.1,57.0,90,29.84,5.0,NW,9.2,-,0.24,Rain,Rain,310,2013-10-07 17:56:00
2:07 PM,60.8,57.2,88,29.81,5.0,NW,11.5,16.1,0.02,Rain,Rain,310,2013-10-07 18:07:00
2:21 PM,60.8,57.2,88,29.85,10.0,WNW,8.1,-,0.02,Rain,Light Rain,290,2013-10-07 18:21:00
2:35 PM,60.8,57.2,88,29.87,10.0,West,8.1,-,0.02,,Overcast,280,2013-10-07 18:35:00
2:56 PM,61.0,57.9,90,29.87,10.0,WNW,5.8,-,0.02,Rain,Light Rain,290,2013-10-07 18:56:00
3:56 PM,63.0,57.9,84,29.87,10.0,West,5.8,-,0.00,,Mostly Cloudy,280,2013-10-07 19:56:00
4:56 PM,64.0,55.9,75,29.90,10.0,NNW,3.5,-,N/A,,Partly Cloudy,340,2013-10-07 20:56:00
5:56 PM,62.1,48.0,60,29.93,10.0,West,6.9,-,N/A,,Partly Cloudy,280,2013-10-07 21:56:00
6:56 PM,57.9,52.0,81,29.96,10.0,WSW,3.5,-,N/A,,Clear,250,2013-10-07 22:56:00
7:56 PM,60.1,46.0,60,29.99,10.0,WNW,6.9,-,N/A,,Clear,290,2013-10-07 23:56:00
8:56 PM,55.9,45.0,67,30.02,10.0,West,5.8,-,N/A,,Clear,280,2013-10-08 00:56:00
9:56 PM,55.9,43.0,62,30.04,10.0,WNW,5.8,-,N/A,,Clear,290,2013-10-08 01:56:00
10:56 PM,55.9,43.0,62,30.04,10.0,Calm,Calm,-,N/A,,Clear,0,2013-10-08 02:56:00
11:56 PM,51.1,44.1,77,30.06,10.0,South,4.6,-,N/A,,Clear,190,2013-10-08 03:56:00